FLOCK 3P-29 (42045 NORAD) Tracking and Keplerian Element Data

This shows tracking and keplerian element data for the satellite.

Feedback or suggestion? Click here.




ElementValue
Catalog42045
NameFLOCK 3P-29
Epoch Orbit5465
Epoch Day45.82692876
Epoch Year2018
RAAN111.3727
Inclination97.466
Eccentricity0.0009506
Argument of Perigee68.1528
Mean Anonmoly292.0719
Mean Motion15.23934271
Decay Rate1.34E-05
L11 42045U 17008DB 18045.82692876 .00001340 00000-0 58383-4 0 9996
L22 42045 97.4660 111.3727 0009506 68.1528 292.0719 15.23934271 54658

Live tracking and technical data element details for FLOCK 3P-29 (NORAD 42045). FLOCK 3P-29 can be tracked NOW for your location showing map with azimuth and elevation plus other details from your city location.

Track the satellite on the map from your city or location and see movement details for azimuth, elevation, latitude, longitude, range, height, and movement on the map or in text.







IsCatalogInMostPopularTable: catalog: 42045, numindb: 142
Update: records affected: 1



GetName: 42045 FLOCK 3P-29

Hit Count: updated at: Fri, 16 Nov 2018 11:56:17 GMT